sat.trackr.live / text

‹ back to catalog

STARLINK-31412

NORAD 59410 · 2024-064N

PAYLOAD ACTIVE UNKNOWN

§ Identity

Operator
Country
US
Launch date
2024-04-05
Launch site
AFETR
Launch vehicle
Mass (kg)
RCS (m²)

Purposes: comms

External: N2YO · Heavens-Above · Gunter

§ Orbital elements

Epoch: 2026-05-24T20:21:34.724448Z

Period
94.27 min
Inclination
43.0021°
Eccentricity
0.0001031
Mean motion
15.27565101 rev/d
Perigee alt
482.4 km
Apogee alt
483.8 km
Semi-major
6,861.2 km
B*
-9.0628e-5
RAAN
346.0347°
Arg perigee
272.8908°
Mean anomaly
87.1825°
Rev number
12,087

§ Raw data

STARLINK-314121 59410U 24064N   26144.84831857 -.00002754  00000+0 -90628-4 0  99942 59410  43.0021 346.0347 0001031 272.8908  87.1825 15.27565101120871

JSON: /api/v1/satellites/59410 · /tle

For live sub-satellite position, see the globe view (requires WebGL).

§ Visibility from observer

Set your observer location to see the next 7 days of passes ≥ 10°. The values pass through the URL so the page stays shareable.

No JS? Fill the form by hand. The geolocation button needs JavaScript.